Location: Boda
(47.1872°N, 9.5454°E)
Time: 09:26:06
(UTC+00:00)

Cosmos 2061 Rocket - Pass Details

Date: 14 May 2021
Orbit: 966 x 1012 km, 82.9° (Epoch: 16 June)

Event Time Altitude Azimuth Distance (km) Brightness Sun altitude
Rises 01:40:49 0° 347° (NNW) 3,707 7.7 -16.8°
Reaches altitude 10° 01:43:22 10° 344° (NNW) 2,761 6.9 -16.5°
Maximum altitude 01:49:32 56° 268° (W) 1,171 4.2 -15.9°
Enters shadow 01:53:56 20° 197° (SSW) 2,139 5.2 -15.4°
